Starlink 32381

operational
NORAD ID: 61066 Int'l Des: 2024-164 Owner: SPXS Country: US Constellation: starlink
LEOCIRCULAR

Über Starlink 32381

Beschreibung wird geladen...

Live-Position

3D-Globus wird geladen...

Nächste Überflüge

Höhenverlauf

Altitude vs Time

uPlot chart will show altitude changes over time

Zweizeiliger Elementsatz

1 61066U 24164S 25352.30339220 .00001337 00000-0 57243-4 0 9994
2 61066 53.1594 109.3846 0000870 77.9634 282.1464 15.30196687 71012
Epoch: 18. Dez. 2025 • Age: 13 hours

Aktueller Status

Höhe 476.2 km
Geschwindigkeit 7.63 km/s
Subsatellitenpunkt -1.07°S, 81.24°E
Startdatum 13. Sept. 2024
Alter 1.2 years
Typ internet

Technische Details

Klassifizierung Payload
Masse 730.00 kg
Trockenmasse 700.00 kg
Gesamtmasse 730.00 kg
Länge 0.30 m
Durchmesser 4.10 m
Spannweite 29.00 m
Form Box + pan
Hersteller SPXS
Bus-Typ Starlink V2M
Phasenstatus In Orbit
Besitzer/Staat SPXS/US

Große Konstellationen

Loading constellations...